Retour au catalogue

STARLINK-31033

ActifCommunicationsVLEO
NORAD 58723·PAYLOAD·🇺🇸 United States

Lancé Jan 3, 2024 depuis Vandenberg Space Force Base

Loading…

Prochains Passages (prochaines 24 heures)

TLE

FraisSource: CelesTrak SupGP

Époque: Sep 15, 2026, 02:26 UTC

1 58723C 24002U   26258.10187500 -.00024546  00000+0 -72531-3 0  2589
2 58723  53.1588  68.7829 0001131  87.3976 293.7776 15.34398694    17

Suivez STARLINK-31033 en temps réel avec AllMySat

Download on the App Store